Flag for Germany Weather past 2 weeks in Schönebeck, Saxony-Anhalt, Germany

Now
37 °F

Scattered clouds.


Feels Like: 34 °F
Forecast: 29 / 38 °F
Wind: 3 mph from West

Location: Magdeburg

Current Time: Feb 1, 2015 at 1:24:15 PM

Latest Report: Feb 1, 2015 at 1:00 PM


Visibility: 13 mi

Pressure: 29.21 "Hg

Humidity: 68%

Dew point: 27 °F

Location of SchönebeckLocation

Historic Weather in Schönebeck — Graph

°F

Schönebeck temperature yesterday

Maximum temperature yesterday: 36 °F (at 4:00 PM)
Minimum temperature yesterday: 25 °F (at 8:00 AM)
Average temperature yesterday: 32 °F

Past Weeks' High & Low Weather Summary

 TemperatureHumidityPressure
High42 °F (Jan 27, 2:00 PM)98% (Jan 20, 9:00 AM)30.34 "Hg (Jan 20, 9:00 AM)
Low24 °F (Jan 19, 7:00 AM)66% (Jan 29, 11:00 AM)28.70 "Hg (Jan 30, 5:00 AM)
Average33 °F88%29.79 "Hg
* Reported Jan 17 12:00 Noon — Feb 1 12:00 Noon, Schönebeck, Weather by CustomWeather, © 2014

Note: Actual official high and low records may vary slightly from our data, if they occured in-between our weather recording intervals... More about our weather records

Advertising

Schönebeck weather history for previous 24 hours

 ConditionsComfort  
Time TempWeatherWind HumidityBarometerVisibility
12:00 PM
Feb 1
36 °FScattered clouds.3 mph70%29.21 "Hg12 mi
11:00 AM34 °FScattered clouds.5 mph73%29.21 "Hg9 mi
9:00 AM28 °FPassing clouds.2 mph85%29.18 "Hg6 mi
8:00 AM28 °FPassing clouds.2 mph88%29.18 "Hg6 mi
7:00 AM27 °FPassing clouds.1 mph92%29.15 "Hg5 mi
6:00 AM29 °FPassing clouds.2 mph89%29.15 "Hg6 mi
5:00 AM27 °FClear.2 mph90%29.12 "Hg6 mi
3:00 AM26 °FPassing clouds.1 mph92%29.12 "Hg5 mi
2:00 AM27 °FPassing clouds.2 mph89%29.12 "Hg7 mi
1:00 AM28 °FPassing clouds.2 mph89%29.09 "Hg7 mi
12:00 AM29 °FPassing clouds.2 mph87%29.09 "Hg7 mi
11:00 PM
Jan 31
31 °FPassing clouds.3 mph82%29.09 "Hg9 mi
9:00 PM32 °FPassing clouds.3 mph84%29.06 "Hg6 mi
8:00 PM32 °FPassing clouds.3 mph84%29.06 "Hg6 mi
7:00 PM33 °FPassing clouds.3 mph83%29.03 "Hg7 mi
6:00 PM35 °FPassing clouds.5 mph81%29.00 "Hg10 mi
5:00 PM35 °FOvercast.3 mph83%29.00 "Hg11 mi
4:00 PM36 °FOvercast.5 mph82%28.97 "Hg10 mi
3:00 PM34 °FLow clouds.1 mph97%28.97 "Hg2 mi
2:00 PM33 °FLight snow. Low clouds.1 mph96%28.94 "Hg1 mi
1:00 PM33 °FLight snow. Overcast.2 mph94%28.94 "Hg2 mi
Weather by CustomWeather, © 2014

See weather overviewHow to use our weather pages